Time,TemperatureF,DewpointF,PressureIn,WindDirection,WindDirectionDegrees,WindSpeedMPH,WindSpeedGustMPH,Humidity,HourlyPrecipIn,Conditions,Clouds,dailyrainin,SoftwareType,DateUTC
2013-06-06 00:05:00,75.5,70.0,29.84,ENE,61,3.0,9.0,83,0.00,,,0.00,weatherlink.com 1.10,2013-06-06 05:05:00,
2013-06-06 00:20:00,75.3,70.0,29.84,East,90,8.0,12.0,82,0.00,,,0.00,weatherlink.com 1.10,2013-06-06 05:20:00,
2013-06-06 00:35:00,75.3,70.0,29.84,ENE,65,0.0,9.0,82,0.00,,,0.00,weatherlink.com 1.10,2013-06-06 05:35:00,
2013-06-06 00:50:00,74.9,69.0,29.84,ENE,61,5.0,10.0,83,0.00,,,0.00,weatherlink.com 1.10,2013-06-06 05:50:00,
2013-06-06 01:05:00,74.7,69.0,29.85,ENE,57,4.0,9.0,83,0.00,,,0.00,weatherlink.com 1.10,2013-06-06 06:05:00,
2013-06-06 01:20:00,74.7,69.0,29.84,NNE,33,6.0,10.0,83,0.00,,,0.00,weatherlink.com 1.10,2013-06-06 06:20:00,
2013-06-06 01:35:00,74.6,69.0,29.84,NE,46,6.0,12.0,82,0.00,,,0.00,weatherlink.com 1.10,2013-06-06 06:35:00,
2013-06-06 01:50:00,74.6,68.0,29.82,NE,39,7.0,12.0,81,0.00,,,0.00,weatherlink.com 1.10,2013-06-06 06:50:00,
2013-06-06 02:05:00,74.5,68.0,29.82,ENE,69,7.0,10.0,81,0.00,,,0.00,weatherlink.com 1.10,2013-06-06 07:05:00,
2013-06-06 02:20:00,74.2,68.0,29.82,NE,49,7.0,9.0,82,0.00,,,0.00,weatherlink.com 1.10,2013-06-06 07:20:00,
2013-06-06 02:35:00,74.0,68.0,29.81,NE,35,8.0,10.0,82,0.00,,,0.00,weatherlink.com 1.10,2013-06-06 07:35:00,
2013-06-06 02:50:00,73.5,68.0,29.82,ENE,61,5.0,10.0,83,0.00,,,0.00,weatherlink.com 1.10,2013-06-06 07:50:00,
2013-06-06 03:05:00,73.3,68.0,29.82,NE,55,7.0,11.0,84,0.00,,,0.00,weatherlink.com 1.10,2013-06-06 08:05:00,
2013-06-06 03:20:00,73.1,68.0,29.81,ENE,65,2.0,11.0,84,0.00,,,0.00,weatherlink.com 1.10,2013-06-06 08:20:00,
2013-06-06 03:35:00,73.0,68.0,29.85,WSW,257,7.0,11.0,85,0.00,,,0.00,weatherlink.com 1.10,2013-06-06 08:35:00,
2013-06-06 03:50:00,70.6,66.0,29.86,North,5,12.0,18.0,85,0.04,,,0.04,weatherlink.com 1.10,2013-06-06 08:50:00,
2013-06-06 04:05:00,66.8,64.0,29.91,West,265,15.0,25.0,89,0.13,,,0.13,weatherlink.com 1.10,2013-06-06 09:05:00,
2013-06-06 04:20:00,65.4,63.0,29.86,WNW,298,6.0,17.0,92,0.19,,,0.19,weatherlink.com 1.10,2013-06-06 09:20:00,
2013-06-06 04:35:00,65.1,63.0,29.87,WNW,284,7.0,14.0,93,0.24,,,0.24,weatherlink.com 1.10,2013-06-06 09:35:00,
2013-06-06 04:50:00,64.9,63.0,29.89,WNW,299,6.0,11.0,94,0.25,,,0.29,weatherlink.com 1.10,2013-06-06 09:50:00,
2013-06-06 05:05:00,65.0,63.0,29.88,NW,304,7.0,8.0,93,0.22,,,0.35,weatherlink.com 1.10,2013-06-06 10:05:00,
2013-06-06 05:20:00,65.1,63.0,29.88,NNW,341,6.0,8.0,94,0.21,,,0.40,weatherlink.com 1.10,2013-06-06 10:20:00,
2013-06-06 05:35:00,65.2,64.0,29.88,WNW,300,5.0,10.0,94,0.20,,,0.45,weatherlink.com 1.10,2013-06-06 10:35:00,
2013-06-06 05:50:00,65.2,64.0,29.88,WNW,298,0.0,0.0,95,0.21,,,0.51,weatherlink.com 1.10,2013-06-06 10:50:00,
2013-06-06 06:05:00,65.1,64.0,29.87,North,5,0.0,5.0,95,0.22,,,0.57,weatherlink.com 1.10,2013-06-06 11:05:00,
2013-06-06 06:20:00,65.1,64.0,29.86,NNE,26,0.0,0.0,95,0.22,,,0.62,weatherlink.com 1.10,2013-06-06 11:20:00,
2013-06-06 06:35:00,65.0,64.0,29.84,NNE,28,0.0,0.0,95,0.21,,,0.67,weatherlink.com 1.10,2013-06-06 11:35:00,
2013-06-06 06:50:00,65.0,64.0,29.82,East,98,0.0,0.0,96,0.21,,,0.72,weatherlink.com 1.10,2013-06-06 11:50:00,
2013-06-06 07:05:00,64.8,64.0,29.80,East,81,3.0,4.0,96,0.20,,,0.77,weatherlink.com 1.10,2013-06-06 12:05:00,
2013-06-06 07:20:00,64.6,64.0,29.81,ENE,71,2.0,10.0,96,0.18,,,0.81,weatherlink.com 1.10,2013-06-06 12:20:00,
2013-06-06 07:36:00,64.7,64.0,29.82,ENE,64,0.0,8.0,96,0.17,,,0.85,weatherlink.com 1.10,2013-06-06 12:36:00,
2013-06-06 07:51:00,64.9,64.0,29.84,NE,54,1.0,7.0,96,0.16,,,0.89,weatherlink.com 1.10,2013-06-06 12:51:00,
2013-06-06 08:06:00,65.1,64.0,29.84,ENE,60,0.0,5.0,96,0.15,,,0.92,weatherlink.com 1.10,2013-06-06 13:06:00,
2013-06-06 08:21:00,65.2,64.0,29.83,ENE,63,0.0,7.0,96,0.15,,,0.96,weatherlink.com 1.10,2013-06-06 13:21:00,
2013-06-06 08:36:00,65.3,64.0,29.84,NE,49,2.0,6.0,96,0.13,,,0.99,weatherlink.com 1.10,2013-06-06 13:36:00,
2013-06-06 08:51:00,65.6,65.0,29.84,ENE,71,0.0,7.0,96,0.13,,,1.02,weatherlink.com 1.10,2013-06-06 13:51:00,
2013-06-06 09:06:00,66.1,65.0,29.84,NE,38,1.0,8.0,95,0.11,,,1.04,weatherlink.com 1.10,2013-06-06 14:06:00,
2013-06-06 09:21:00,66.6,65.0,29.84,NE,49,0.0,8.0,95,0.11,,,1.07,weatherlink.com 1.10,2013-06-06 14:21:00,
2013-06-06 09:36:00,67.0,66.0,29.85,NE,53,0.0,5.0,95,0.10,,,1.09,weatherlink.com 1.10,2013-06-06 14:36:00,
2013-06-06 09:51:00,67.8,66.0,29.86,ENE,63,0.0,5.0,94,0.09,,,1.11,weatherlink.com 1.10,2013-06-06 14:51:00,
2013-06-06 10:06:00,68.7,67.0,29.86,ENE,75,5.0,11.0,93,0.09,,,1.13,weatherlink.com 1.10,2013-06-06 15:06:00,
2013-06-06 10:21:00,68.9,67.0,29.85,NE,36,5.0,10.0,92,0.08,,,1.15,weatherlink.com 1.10,2013-06-06 15:21:00,
2013-06-06 10:36:00,69.0,66.0,29.86,NE,36,3.0,8.0,91,0.07,,,1.16,weatherlink.com 1.10,2013-06-06 15:36:00,
2013-06-06 10:51:00,69.0,66.0,29.86,NE,49,4.0,6.0,91,0.06,,,1.17,weatherlink.com 1.10,2013-06-06 15:51:00,
2013-06-06 11:06:00,69.2,67.0,29.86,NNE,26,0.0,9.0,91,0.05,,,1.18,weatherlink.com 1.10,2013-06-06 16:06:00,
2013-06-06 11:21:00,69.8,66.0,29.87,NE,38,0.0,10.0,88,0.04,,,1.19,weatherlink.com 1.10,2013-06-06 16:21:00,
2013-06-06 11:36:00,69.9,66.0,29.88,NE,40,3.0,10.0,88,0.04,,,1.20,weatherlink.com 1.10,2013-06-06 16:36:00,
2013-06-06 11:51:00,70.0,66.0,29.89,NNE,20,4.0,8.0,87,0.03,,,1.20,weatherlink.com 1.10,2013-06-06 16:51:00,
2013-06-06 12:06:00,70.3,66.0,29.89,NNE,23,0.0,8.0,87,0.02,,,1.20,weatherlink.com 1.10,2013-06-06 17:06:00,
2013-06-06 12:21:00,70.3,66.0,29.90,NNE,25,5.0,11.0,86,0.02,,,1.21,weatherlink.com 1.10,2013-06-06 17:21:00,
2013-06-06 12:36:00,70.3,66.0,29.91,NNW,345,0.0,8.0,87,0.01,,,1.21,weatherlink.com 1.10,2013-06-06 17:36:00,
2013-06-06 12:51:00,70.6,66.0,29.91,NE,39,6.0,7.0,86,0.01,,,1.21,weatherlink.com 1.10,2013-06-06 17:51:00,
2013-06-06 13:06:00,71.0,66.0,29.91,NE,38,1.0,6.0,85,0.01,,,1.21,weatherlink.com 1.10,2013-06-06 18:06:00,
2013-06-06 13:36:00,71.8,66.0,29.91,NNE,28,5.0,9.0,83,0.00,,,1.21,weatherlink.com 1.10,2013-06-06 18:36:00,
2013-06-06 13:51:00,72.0,67.0,29.90,NNE,12,6.0,8.0,83,0.00,,,1.21,weatherlink.com 1.10,2013-06-06 18:51:00,
2013-06-06 14:06:00,72.5,67.0,29.90,North,355,7.0,12.0,82,0.00,,,1.21,weatherlink.com 1.10,2013-06-06 19:06:00,
2013-06-06 14:21:00,72.5,66.0,29.90,NE,36,8.0,11.0,80,0.00,,,1.21,weatherlink.com 1.10,2013-06-06 19:21:00,
2013-06-06 14:36:00,72.7,66.0,29.90,NE,49,7.0,12.0,79,0.00,,,1.21,weatherlink.com 1.10,2013-06-06 19:36:00,
2013-06-06 14:51:00,73.4,66.0,29.90,NNE,27,2.0,11.0,77,0.00,,,1.21,weatherlink.com 1.10,2013-06-06 19:51:00,
2013-06-06 15:06:00,72.8,66.0,29.90,NE,50,4.0,9.0,78,0.00,,,1.21,weatherlink.com 1.10,2013-06-06 20:06:00,
2013-06-06 15:36:00,73.0,66.0,29.89,NE,35,0.0,7.0,78,0.00,,,1.21,weatherlink.com 1.10,2013-06-06 20:36:00,
2013-06-06 15:51:00,74.0,65.0,29.89,NNE,24,5.0,11.0,74,0.00,,,1.21,weatherlink.com 1.10,2013-06-06 20:51:00,
2013-06-06 16:21:00,74.4,66.0,29.88,NNE,17,9.0,11.0,75,0.00,,,1.21,weatherlink.com 1.10,2013-06-06 21:21:00,
2013-06-06 16:36:00,74.8,66.0,29.87,North,5,3.0,13.0,73,0.00,,,1.21,weatherlink.com 1.10,2013-06-06 21:36:00,
2013-06-06 16:51:00,74.5,65.0,29.87,NNE,20,10.0,14.0,73,0.00,,,1.21,weatherlink.com 1.10,2013-06-06 21:51:00,
2013-06-06 17:06:00,74.5,65.0,29.87,NNE,13,5.0,14.0,72,0.00,,,1.21,weatherlink.com 1.10,2013-06-06 22:06:00,
2013-06-06 17:21:00,74.8,63.0,29.87,NE,49,8.0,15.0,67,0.00,,,1.21,weatherlink.com 1.10,2013-06-06 22:21:00,
2013-06-06 17:36:00,74.7,64.0,29.87,NE,42,6.0,13.0,69,0.00,,,1.21,weatherlink.com 1.10,2013-06-06 22:36:00,
2013-06-06 17:51:00,74.9,65.0,29.87,NNE,27,5.0,10.0,70,0.00,,,1.21,weatherlink.com 1.10,2013-06-06 22:51:00,
2013-06-06 18:06:00,75.1,64.0,29.86,North,360,5.0,9.0,69,0.00,,,1.21,weatherlink.com 1.10,2013-06-06 23:06:00,
2013-06-06 18:21:00,74.9,64.0,29.86,NNE,14,5.0,11.0,69,0.00,,,1.21,weatherlink.com 1.10,2013-06-06 23:21:00,
2013-06-06 18:36:00,75.1,64.0,29.86,NNE,20,0.0,8.0,69,0.00,,,1.21,weatherlink.com 1.10,2013-06-06 23:36:00,
2013-06-06 18:51:00,74.9,64.0,29.86,NE,44,2.0,11.0,68,0.00,,,1.21,weatherlink.com 1.10,2013-06-06 23:51:00,
2013-06-06 19:06:00,75.0,63.0,29.86,ENE,63,8.0,8.0,67,0.00,,,1.21,weatherlink.com 1.10,2013-06-07 00:06:00,
2013-06-06 19:21:00,74.7,63.0,29.87,NE,44,0.0,7.0,68,0.00,,,1.21,weatherlink.com 1.10,2013-06-07 00:21:00,
2013-06-06 19:36:00,74.8,63.0,29.87,NE,39,0.0,9.0,67,0.00,,,1.21,weatherlink.com 1.10,2013-06-07 00:36:00,
2013-06-06 19:51:00,74.4,63.0,29.87,NE,46,0.0,5.0,68,0.00,,,1.21,weatherlink.com 1.10,2013-06-07 00:51:00,
2013-06-06 20:06:00,74.0,64.0,29.88,NE,46,0.0,0.0,71,0.00,,,1.21,weatherlink.com 1.10,2013-06-07 01:06:00,
2013-06-06 20:21:00,73.2,63.0,29.88,NE,46,0.0,0.0,71,0.00,,,1.21,weatherlink.com 1.10,2013-06-07 01:21:00,
2013-06-06 20:36:00,72.3,62.0,29.89,NE,46,0.0,0.0,71,0.00,,,1.21,weatherlink.com 1.10,2013-06-07 01:36:00,
2013-06-06 20:51:00,71.5,62.0,29.89,NE,46,0.0,0.0,73,0.00,,,1.21,weatherlink.com 1.10,2013-06-07 01:51:00,
2013-06-06 21:06:00,70.5,63.0,29.89,NE,46,0.0,0.0,76,0.00,,,1.21,weatherlink.com 1.10,2013-06-07 02:06:00,
2013-06-06 21:21:00,69.6,63.0,29.90,NE,46,0.0,0.0,79,0.00,,,1.21,weatherlink.com 1.10,2013-06-07 02:21:00,
2013-06-06 21:36:00,68.6,63.0,29.90,NE,46,0.0,0.0,83,0.00,,,1.21,weatherlink.com 1.10,2013-06-07 02:36:00,
2013-06-06 21:51:00,67.7,63.0,29.90,NE,46,0.0,0.0,85,0.00,,,1.21,weatherlink.com 1.10,2013-06-07 02:51:00,
2013-06-06 22:06:00,66.8,63.0,29.91,NE,46,0.0,0.0,88,0.00,,,1.21,weatherlink.com 1.10,2013-06-07 03:06:00,
2013-06-06 22:21:00,65.9,62.0,29.92,NE,46,0.0,0.0,88,0.00,,,1.21,weatherlink.com 1.10,2013-06-07 03:21:00,
2013-06-06 22:36:00,65.4,62.0,29.92,NE,46,0.0,0.0,89,0.00,,,1.21,weatherlink.com 1.10,2013-06-07 03:36:00,
2013-06-06 22:51:00,64.7,62.0,29.93,NE,46,0.0,0.0,90,0.00,,,1.21,weatherlink.com 1.10,2013-06-07 03:51:00,
2013-06-06 23:06:00,64.0,61.0,29.93,NE,46,0.0,0.0,91,0.00,,,1.21,weatherlink.com 1.10,2013-06-07 04:06:00,
2013-06-06 23:21:00,63.7,61.0,29.93,NE,46,0.0,0.0,92,0.00,,,1.21,weatherlink.com 1.10,2013-06-07 04:21:00,
2013-06-06 23:36:00,63.5,62.0,29.93,NE,46,0.0,0.0,93,0.00,,,1.21,weatherlink.com 1.10,2013-06-07 04:36:00,
2013-06-06 23:51:00,63.1,61.0,29.93,NE,46,0.0,0.0,93,0.00,,,1.21,weatherlink.com 1.10,2013-06-07 04:51:00,